Terug naar catalogus

STARLINK-5725

ActiefCommunicatieVLEO
NORAD 55605·PAYLOAD·🇺🇸 United States

Gelanceerd Feb 12, 2023 vanaf Cape Canaveral Space Force Station

Loading…

Volgende Passages (komende 24 uur)

TLE

VersSource: CelesTrak SupGP

Epoch: Sep 15, 2026, 02:43 UTC

1 55605C 23020AN  26258.11368056  .00002719  00000+0  98478-4 0  2587
2 55605  43.0037   4.3993 0001456 267.8036 321.9396 15.27574948    12

Volg STARLINK-5725 in realtime met AllMySat

Download on the App Store